レモン彗星

C/2018 C2 ( Lemmon )

English version
Home page
Updated on March 11, 2025

---------------------------------------------------------------------

・ プロフィール

発見日 2018年2月5日
発見光度 19.9等
発見者 Mount Lemmon Survey

・ 写真集

・ 軌道要素

Epoch 2018 June 11.0 TT = JDT 2458280.5
T 2018 June 2.22202 TT                                  MPCW
q   1.9565139            (2000.0)            P               Q
z  -0.0009367      Peri.  134.13804     -0.57781293     +0.58838395
 +/-0.0000007      Node    91.13907     -0.81109415     -0.49112579
e   1.0018327      Incl.   34.45377     +0.09087627     -0.64233931
From 1645 observations 2018 Jan. 28-Oct. 27, mean residual 0".3.

・ 星図

・ 光度変化

        m1 =  8.5 + 5 logΔ + 22.0 log r(t - 30)  [ ,0]  (              〜2018年 6月 2日)
        m1 = 11.9 + 5 logΔ + 10.0 log r(t - 60)  [0, ]  (2018年 6月 2日〜              )

---------------------------------------------------------------------

軌道要素はM.P.E.C. 2019-J142に掲載されたものです。
星図はステラナビゲータ Ver.10 (アストロアーツ) で作成したものです。
光度グラフはComet for Windowsで作成したものです。

---------------------------------------------------------------------

Copyright(C) Seiichi Yoshida (comet@aerith.net). All rights reserved.